Radiation Dose at Monitoring Post of Fukushima Daini Nuclear Power Station
Date,Time,MP-1(microSv/h),MP-2(microSv/h),MP-3(microSv/h),MP-4(microSv/h),MP-5(microSv/h),MP-6(microSv/h),MP-7(microSv/h),Wind Direction,Wind Velocity(m/s),Rain
2016/09/06,00:00,0.395,0.240,0.425,0.390,0.368,0.198,0.168,south,7.7,No
2016/09/06,00:10,0.399,0.242,0.422,0.390,0.366,0.199,0.170,south-southwest,7.8,No
2016/09/06,00:20,0.402,0.241,0.422,0.385,0.366,0.198,0.167,south-southwest,8.3,No
2016/09/06,00:30,0.398,0.239,0.426,0.386,0.370,0.198,0.168,south-southwest,8.5,No
2016/09/06,00:40,0.395,0.242,0.424,0.391,0.368,0.197,0.170,south-southwest,7.9,No
2016/09/06,00:50,0.401,0.241,0.420,0.388,0.365,0.197,0.170,south-southwest,7.2,No
2016/09/06,01:00,0.401,0.240,0.422,0.386,0.367,0.197,0.169,south-southwest,7.8,No
2016/09/06,01:10,0.395,0.241,0.425,0.388,0.370,0.197,0.168,south-southwest,9.6,No
2016/09/06,01:20,0.397,0.242,0.423,0.389,0.366,0.199,0.170,south-southwest,9.1,No
2016/09/06,01:30,0.401,0.238,0.422,0.387,0.366,0.197,0.169,south-southwest,8.5,No
2016/09/06,01:40,0.399,0.241,0.422,0.385,0.370,0.197,0.167,south-southwest,10.1,No
2016/09/06,01:50,0.397,0.241,0.425,0.391,0.369,0.198,0.168,south-southwest,9.8,No
2016/09/06,02:00,0.400,0.240,0.422,0.387,0.365,0.198,0.169,south-southwest,9.5,No
2016/09/06,02:10,0.401,0.240,0.420,0.385,0.365,0.197,0.169,south-southwest,9.4,No
2016/09/06,02:20,0.398,0.243,0.423,0.386,0.371,0.198,0.168,south-southwest,10.4,No
2016/09/06,02:30,0.395,0.241,0.424,0.390,0.368,0.197,0.169,south,7.9,No
2016/09/06,02:40,0.400,0.239,0.423,0.389,0.365,0.198,0.170,south-southwest,7.8,No
2016/09/06,02:50,0.401,0.242,0.420,0.386,0.365,0.197,0.170,south-southwest,9.1,No
2016/09/06,03:00,0.398,0.241,0.420,0.385,0.370,0.198,0.168,south-southwest,9.8,No
2016/09/06,03:10,0.395,0.240,0.425,0.389,0.368,0.197,0.169,south-southwest,10.2,No
2016/09/06,03:20,0.399,0.241,0.425,0.389,0.366,0.197,0.170,south-southwest,10.7,No
2016/09/06,03:30,0.400,0.242,0.421,0.388,0.363,0.198,0.168,south,10.6,No
2016/09/06,03:40,0.400,0.241,0.421,0.386,0.370,0.197,0.168,south,10.4,No
2016/09/06,03:50,0.395,0.240,0.425,0.391,0.369,0.197,0.169,south,10.9,No
2016/09/06,04:00,0.400,0.241,0.426,0.388,0.366,0.198,0.170,south,9.2,No
2016/09/06,04:10,0.402,0.243,0.422,0.387,0.365,0.198,0.169,south,9.0,Yes
2016/09/06,04:20,0.398,0.240,0.419,0.386,0.370,0.198,0.169,south,9.2,Yes
2016/09/06,04:30,0.395,0.241,0.424,0.390,0.368,0.198,0.169,south,9.9,No
2016/09/06,04:40,0.400,0.241,0.426,0.389,0.365,0.198,0.169,south,9.5,No
2016/09/06,04:50,0.400,0.242,0.421,0.387,0.368,0.198,0.168,south,10.5,No
2016/09/06,05:00,0.400,0.240,0.419,0.389,0.370,0.197,0.169,south,10.7,No
2016/09/06,05:10,0.396,0.241,0.425,0.389,0.367,0.198,0.169,south,11.2,No
2016/09/06,05:20,0.402,0.241,0.425,0.387,0.364,0.199,0.169,south,9.8,No
2016/09/06,05:30,0.401,0.240,0.421,0.385,0.368,0.197,0.168,south-southwest,10.3,No
2016/09/06,05:40,0.397,0.239,0.421,0.389,0.368,0.198,0.169,south-southwest,9.8,No
2016/09/06,05:50,0.395,0.241,0.425,0.389,0.365,0.198,0.169,south-southwest,8.7,No
2016/09/06,06:00,0.401,0.242,0.425,0.387,0.364,0.199,0.168,south-southwest,8.5,No
2016/09/06,06:10,0.399,0.241,0.422,0.384,0.370,0.197,0.168,south,7.7,No
2016/09/06,06:20,0.398,0.240,0.420,0.389,0.368,0.197,0.170,south-southwest,8.1,No
2016/09/06,06:30,0.395,0.243,0.426,0.390,0.364,0.197,0.170,south,7.5,No
2016/09/06,06:40,0.401,0.242,0.426,0.388,0.364,0.198,0.168,south,9.5,No
2016/09/06,06:50,0.400,0.240,0.423,0.385,0.372,0.199,0.168,south-southwest,9.3,No
2016/09/06,07:00,0.397,0.240,0.420,0.387,0.368,0.197,0.170,south-southwest,10.4,No
2016/09/06,07:10,0.394,0.242,0.422,0.390,0.367,0.197,0.170,south-southwest,9.1,No
2016/09/06,07:20,0.400,0.242,0.427,0.388,0.365,0.198,0.169,south-southwest,8.7,No
2016/09/06,07:30,0.401,0.241,0.426,0.386,0.366,0.199,0.167,south,8.1,No
2016/09/06,07:40,0.399,0.239,0.420,0.383,0.371,0.198,0.169,south-southwest,8.4,No
2016/09/06,07:50,0.396,0.240,0.420,0.389,0.367,0.197,0.169,south-southwest,10.6,No
2016/09/06,08:00,0.394,0.242,0.422,0.389,0.366,0.198,0.170,south-southwest,10.9,No
2016/09/06,08:10,0.395,0.242,0.426,0.388,0.364,0.197,0.169,south-southwest,10.0,No
2016/09/06,08:20,0.403,0.242,0.423,0.387,0.363,0.198,0.167,south-southwest,7.8,No
2016/09/06,08:30,0.401,0.241,0.423,0.386,0.364,0.197,0.169,south-southwest,7.3,No
2016/09/06,08:40,0.400,0.241,0.420,0.386,0.364,0.199,0.168,south-southwest,7.8,No
2016/09/06,08:50,0.397,0.242,0.419,0.386,0.365,0.200,0.168,south-southwest,8.4,No
2016/09/06,09:00,0.399,0.243,0.418,0.387,0.365,0.199,0.169,south-southwest,9.8,No
2016/09/06,09:10,0.398,0.241,0.421,0.387,0.366,0.198,0.170,south-southwest,8.0,No
2016/09/06,09:20,0.399,0.245,0.427,0.390,0.369,0.199,0.170,south-southwest,5.8,No
2016/09/06,09:30,0.398,0.244,0.427,0.390,0.368,0.198,0.170,south,8.4,No
2016/09/06,09:40,0.400,0.244,0.425,0.391,0.369,0.200,0.170,south,8.8,No
2016/09/06,09:50,0.401,0.243,0.424,0.392,0.370,0.199,0.170,south,9.6,No
2016/09/06,10:00,0.402,0.245,0.422,0.393,0.370,0.200,0.170,south,10.4,No
2016/09/06,10:10,0.401,0.244,0.421,0.394,0.368,0.199,0.169,south,12.1,No
2016/09/06,10:20,0.401,0.244,0.420,0.393,0.369,0.199,0.169,south,12.8,No
2016/09/06,10:30,0.403,0.242,0.421,0.391,0.369,0.198,0.170,south,11.3,No
2016/09/06,10:40,0.402,0.242,0.422,0.391,0.367,0.199,0.170,south,12.2,No
2016/09/06,10:50,0.402,0.243,0.421,0.391,0.368,0.198,0.168,south,12.2,No
2016/09/06,11:00,0.402,0.243,0.424,0.389,0.367,0.199,0.170,south,11.8,No
2016/09/06,11:10,0.401,0.242,0.424,0.391,0.368,0.198,0.170,south,13.3,No
2016/09/06,11:20,0.401,0.241,0.425,0.390,0.368,0.198,0.170,south,12.1,No
2016/09/06,11:30,0.403,0.241,0.426,0.389,0.369,0.198,0.168,south,13.2,No
2016/09/06,11:40,0.403,0.242,0.427,0.392,0.368,0.199,0.169,south,13.4,No
2016/09/06,11:50,0.402,0.243,0.429,0.391,0.370,0.197,0.169,south,13.4,No
2016/09/06,12:00,0.401,0.242,0.427,0.390,0.367,0.197,0.171,south,14.9,No
2016/09/06,12:10,0.400,0.242,0.427,0.389,0.366,0.198,0.169,south,12.2,No
2016/09/06,12:20,0.398,0.241,0.424,0.388,0.365,0.197,0.169,south,12.6,No
2016/09/06,12:30,0.396,0.241,0.422,0.386,0.366,0.198,0.170,south,13.8,No
2016/09/06,12:40,0.396,0.240,0.422,0.386,0.367,0.198,0.169,south,14.2,No
2016/09/06,12:50,0.398,0.241,0.424,0.386,0.366,0.198,0.169,south,10.8,No
2016/09/06,13:00,0.399,0.242,0.425,0.390,0.368,0.199,0.170,south,10.3,No
2016/09/06,13:10,0.399,0.243,0.428,0.394,0.369,0.198,0.169,south,13.5,No
2016/09/06,13:20,0.402,0.243,0.429,0.394,0.368,0.199,0.170,south,12.1,No
2016/09/06,13:30,0.402,0.242,0.429,0.394,0.368,0.199,0.170,south,12.1,No
2016/09/06,13:40,0.402,0.243,0.428,0.393,0.370,0.201,0.170,south,12.3,No
2016/09/06,13:50,0.401,0.243,0.428,0.392,0.371,0.198,0.171,south-southwest,12.3,No
2016/09/06,14:00,0.403,0.243,0.427,0.390,0.370,0.198,0.170,south,12.2,No
2016/09/06,14:10,0.402,0.243,0.426,0.389,0.371,0.199,0.171,south,11.6,No
2016/09/06,14:20,0.402,0.242,0.426,0.389,0.369,0.198,0.171,south-southwest,12.7,No
2016/09/06,14:30,0.402,0.242,0.427,0.390,0.369,0.201,0.170,south,12.9,No
2016/09/06,14:40,0.399,0.243,0.425,0.391,0.369,0.199,0.171,south,13.6,No
2016/09/06,14:50,0.399,0.243,0.424,0.388,0.369,0.200,0.170,south-southwest,12.2,No
2016/09/06,15:00,0.400,0.243,0.424,0.388,0.370,0.200,0.171,south,11.6,No
2016/09/06,15:10,0.399,0.242,0.421,0.388,0.367,0.200,0.169,south,12.3,No
2016/09/06,15:20,0.399,0.242,0.424,0.387,0.368,0.200,0.170,south-southwest,13.7,No
2016/09/06,15:30,0.398,0.242,0.423,0.386,0.367,0.199,0.169,south,12.9,No
2016/09/06,15:40,0.399,0.243,0.423,0.387,0.369,0.200,0.170,south,11.8,No
2016/09/06,15:50,0.399,0.242,0.423,0.388,0.368,0.200,0.169,south-southwest,11.0,No
2016/09/06,16:00,0.400,0.242,0.423,0.388,0.367,0.198,0.169,south-southwest,11.2,No
2016/09/06,16:10,0.401,0.242,0.425,0.389,0.367,0.199,0.169,south-southwest,9.5,No
2016/09/06,16:20,0.399,0.243,0.424,0.388,0.366,0.198,0.169,south-southwest,8.7,No
2016/09/06,16:30,0.399,0.241,0.423,0.385,0.365,0.198,0.168,south-southwest,8.7,No
2016/09/06,16:40,0.399,0.241,0.424,0.388,0.367,0.196,0.168,south-southwest,8.3,No
2016/09/06,16:50,0.398,0.242,0.424,0.387,0.366,0.198,0.168,south-southwest,8.9,No
2016/09/06,17:00,0.397,0.241,0.423,0.387,0.367,0.198,0.170,south-southwest,8.1,No
2016/09/06,17:10,0.398,0.241,0.423,0.387,0.367,0.197,0.170,south-southwest,7.0,No
2016/09/06,17:20,0.399,0.242,0.423,0.391,0.366,0.198,0.170,south-southwest,7.5,No
2016/09/06,17:30,0.405,0.242,0.425,0.395,0.367,0.199,0.170,south-southwest,8.1,No
2016/09/06,17:40,0.406,0.241,0.430,0.394,0.367,0.199,0.168,south-southwest,7.1,No
2016/09/06,17:50,0.403,0.242,0.431,0.392,0.365,0.199,0.168,south-southwest,6.7,No
2016/09/06,18:00,0.400,0.244,0.427,0.389,0.365,0.198,0.169,south-southwest,5.2,No
2016/09/06,18:10,0.399,0.244,0.425,0.388,0.371,0.200,0.171,south-southwest,5.0,No
2016/09/06,18:20,0.400,0.243,0.424,0.389,0.372,0.200,0.170,southwest,4.7,No
2016/09/06,18:30,0.405,0.243,0.422,0.394,0.371,0.199,0.170,south-southwest,3.9,No
2016/09/06,18:40,0.405,0.242,0.429,0.393,0.368,0.198,0.169,south-southwest,3.6,No
2016/09/06,18:50,0.403,0.245,0.429,0.392,0.367,0.199,0.171,southwest,3.1,No
2016/09/06,19:00,0.399,0.244,0.428,0.390,0.365,0.200,0.171,southwest,3.5,No
2016/09/06,19:10,0.399,0.243,0.424,0.387,0.367,0.201,0.170,west-northwest,2.1,No
2016/09/06,19:20,0.403,0.243,0.423,0.391,0.373,0.200,0.170,north-northwest,2.0,No
2016/09/06,19:30,0.405,0.242,0.424,0.395,0.371,0.199,0.169,north-northwest,1.7,No
2016/09/06,19:40,0.404,0.245,0.432,0.392,0.370,0.199,0.170,north-northwest,2.4,No
2016/09/06,19:50,0.401,0.245,0.431,0.391,0.367,0.199,0.171,north-northwest,3.1,No
2016/09/06,20:00,0.398,0.245,0.426,0.390,0.367,0.200,0.171,north-northwest,3.8,No
2016/09/06,20:10,0.401,0.243,0.425,0.388,0.367,0.200,0.170,north-northwest,3.1,No
2016/09/06,20:20,0.406,0.242,0.424,0.395,0.373,0.199,0.170,north-northwest,5.0,No
2016/09/06,20:30,0.404,0.245,0.426,0.395,0.372,0.200,0.171,north,5.4,No
2016/09/06,20:40,0.401,0.245,0.431,0.391,0.370,0.201,0.172,north,4.7,No
2016/09/06,20:50,0.399,0.245,0.428,0.389,0.367,0.201,0.171,north,5.3,No
2016/09/06,21:00,0.401,0.243,0.425,0.386,0.367,0.200,0.171,north-northwest,4.1,No
2016/09/06,21:10,0.405,0.243,0.423,0.394,0.370,0.200,0.170,north,3.8,No
2016/09/06,21:20,0.405,0.245,0.424,0.395,0.374,0.201,0.173,north,3.1,No
2016/09/06,21:30,0.401,0.247,0.429,0.390,0.372,0.200,0.172,north-northwest,2.9,No
2016/09/06,21:40,0.399,0.245,0.431,0.390,0.368,0.199,0.170,north-northeast,3.6,Yes
2016/09/06,21:50,0.402,0.244,0.426,0.388,0.366,0.199,0.170,north-northeast,5.3,No
2016/09/06,22:00,0.406,0.244,0.426,0.394,0.368,0.199,0.172,north-northeast,7.7,No
2016/09/06,22:10,0.404,0.244,0.424,0.394,0.373,0.200,0.172,north-northeast,8.7,No
2016/09/06,22:20,0.400,0.244,0.431,0.392,0.371,0.201,0.170,north-northeast,8.9,No
2016/09/06,22:30,0.402,0.242,0.429,0.388,0.368,0.199,0.169,north,7.7,No
2016/09/06,22:40,0.405,0.242,0.426,0.392,0.367,0.198,0.171,north,8.2,No
2016/09/06,22:50,0.403,0.244,0.424,0.393,0.370,0.199,0.172,north,7.4,No
2016/09/06,23:00,0.400,0.244,0.429,0.392,0.372,0.199,0.171,north,7.2,No
2016/09/06,23:10,0.398,0.242,0.429,0.389,0.369,0.199,0.170,north,6.0,No
2016/09/06,23:20,0.406,0.245,0.425,0.393,0.368,0.199,0.171,north,6.4,No
2016/09/06,23:30,0.402,0.245,0.423,0.393,0.370,0.200,0.172,north,6.5,No
2016/09/06,23:40,0.400,0.243,0.430,0.391,0.372,0.200,0.169,north,6.8,No
2016/09/06,23:50,0.399,0.242,0.430,0.390,0.369,0.200,0.169,north,6.6,No
